TimeEST,TemperatureF,Dew PointF,Humidity,Sea Level PressureIn,VisibilityMPH,Wind Direction,Wind SpeedMPH,Gust SpeedMPH,PrecipitationIn,Events,Conditions,WindDirDegrees,DateUTC
12:53 AM,44.1,32.0,63,30.06,10.0,NE,17.3,25.3,N/A,,Mostly Cloudy,50,2012-11-07 05:53:00
1:53 AM,45.0,33.1,63,30.04,10.0,ENE,16.1,27.6,N/A,,Mostly Cloudy,60,2012-11-07 06:53:00
2:53 AM,45.0,34.0,65,30.03,10.0,ENE,19.6,28.8,N/A,,Mostly Cloudy,60,2012-11-07 07:53:00
3:53 AM,46.0,35.1,66,29.99,10.0,NE,19.6,29.9,N/A,,Overcast,50,2012-11-07 08:53:00
4:24 AM,46.4,35.6,66,29.95,10.0,NE,25.3,34.5,N/A,,Mostly Cloudy,50,2012-11-07 09:24:00
4:53 AM,46.0,36.0,68,29.96,10.0,NE,24.2,38.0,N/A,,Overcast,50,2012-11-07 09:53:00
5:53 AM,46.9,37.9,71,29.91,10.0,NE,25.3,41.4,N/A,,Overcast,50,2012-11-07 10:53:00
6:53 AM,46.9,39.9,77,29.87,10.0,NE,28.8,43.7,N/A,,Overcast,50,2012-11-07 11:53:00
7:53 AM,48.0,42.1,80,29.83,10.0,NE,33.4,51.8,N/A,,Overcast,50,2012-11-07 12:53:00
8:53 AM,48.0,42.1,80,29.81,10.0,NE,29.9,50.6,N/A,,Overcast,40,2012-11-07 13:53:00
9:53 AM,46.9,43.0,86,29.80,5.0,NE,36.8,50.6,0.01,Rain,Light Rain,40,2012-11-07 14:53:00
10:53 AM,46.9,43.0,86,29.75,8.0,NE,41.4,51.8,0.07,Rain,Light Rain,40,2012-11-07 15:53:00
11:53 AM,46.0,42.1,86,29.75,4.0,NE,29.9,49.5,0.03,Rain,Rain,40,2012-11-07 16:53:00
12:53 PM,45.0,41.0,86,29.72,3.0,NE,35.7,52.9,0.20,Rain,Heavy Rain,50,2012-11-07 17:53:00
1:53 PM,45.0,42.1,90,29.68,3.0,NE,33.4,49.5,0.21,Rain,Rain,40,2012-11-07 18:53:00
2:53 PM,44.1,41.0,89,29.66,5.0,NE,41.4,55.2,0.06,Rain,Light Rain,40,2012-11-07 19:53:00
3:53 PM,43.0,39.9,89,29.66,2.0,NNE,38.0,55.2,0.13,Rain,Rain,30,2012-11-07 20:53:00
4:48 PM,42.8,39.2,87,29.61,2.0,NNE,47.2,59.8,0.18,Rain,Light Rain,30,2012-11-07 21:48:00
4:53 PM,43.0,39.9,89,29.61,2.0,NNE,48.3,64.4,0.18,Rain,Light Rain,30,2012-11-07 21:53:00
5:53 PM,43.0,39.9,89,29.61,10.0,NNE,40.3,62.1,0.06,,Overcast,30,2012-11-07 22:53:00
6:53 PM,43.0,39.9,89,29.59,5.0,NNE,39.1,54.1,0.03,Rain,Light Rain,30,2012-11-07 23:53:00
7:04 PM,42.8,39.2,87,29.59,5.0,NNE,42.6,57.5,0.00,,Overcast,30,2012-11-08 00:04:00
7:17 PM,42.8,41.0,93,29.59,4.0,NNE,36.8,54.1,0.00,,Overcast,30,2012-11-08 00:17:00
7:53 PM,44.1,41.0,89,29.57,3.0,NNE,40.3,55.2,0.03,,Overcast,30,2012-11-08 00:53:00
8:07 PM,44.6,42.8,93,29.56,2.5,NNE,38.0,56.4,0.01,,Overcast,30,2012-11-08 01:07:00
8:15 PM,44.6,42.8,93,29.55,3.0,NNE,44.9,55.2,0.01,,Overcast,30,2012-11-08 01:15:00
8:53 PM,45.0,42.1,90,29.54,3.0,NNE,41.4,57.5,0.04,Rain,Light Rain,30,2012-11-08 01:53:00
9:06 PM,44.6,42.8,93,29.52,2.5,NNE,36.8,59.8,0.00,,Overcast,30,2012-11-08 02:06:00
9:22 PM,44.6,42.8,93,29.52,2.5,NNE,39.1,56.4,0.02,,Overcast,30,2012-11-08 02:22:00
9:42 PM,44.6,42.8,93,29.51,3.0,NNE,34.5,57.5,0.03,,Overcast,30,2012-11-08 02:42:00
9:53 PM,44.1,43.0,96,29.50,3.0,NNE,41.4,57.5,0.04,,Overcast,20,2012-11-08 02:53:00
10:12 PM,44.6,42.8,93,29.49,4.0,NNE,40.3,59.8,N/A,,Overcast,30,2012-11-08 03:12:00
10:41 PM,46.4,44.6,93,29.47,3.0,NNE,43.7,58.7,0.01,Rain,Light Rain,30,2012-11-08 03:41:00
10:53 PM,46.0,44.1,93,29.48,3.0,NNE,41.4,59.8,0.03,Rain,Light Rain,30,2012-11-08 03:53:00
11:08 PM,46.4,44.6,93,29.48,2.0,NNE,41.4,63.3,0.08,Rain,Rain,30,2012-11-08 04:08:00
11:35 PM,-9999,-9999,N/A,29.45,5.0,NNE,41.4,57.5,0.17,,Unknown,30,2012-11-08 04:35:00
11:53 PM,-9999,-9999,N/A,29.44,3.0,NNE,47.2,57.5,0.18,,Unknown,30,2012-11-08 04:53:00
11:57 PM,-9999,-9999,N/A,29.43,2.5,NNE,41.4,67.9,0.00,,Unknown,20,2012-11-08 04:57:00